Regional Weather Roundup
Issued by NWS

Home | Current Version | Previous Version | Graphics & Text | Print | Product List | Glossary On
Versions: 1 2 3 4 5 6 7 8 9 10 11 12 13 14 15 16 17 18 19 20 21 22 23 24 25 26 27 28 29 30 31 32 33 34 35 36 37 38 39 40 41 42 43 44 45 46 47 48 49 50
000
ASUS43 KOAX 202210
RWRNE

WEATHER ROUNDUP FOR NEBRASKA
NATIONAL WEATHER SERVICE OMAHA NE
500 PM CDT MON APR 20 2015

NOTES: SATELLITE DATA IS BEING USED TO AUGMENT CLOUD COVER ABOVE
       12000 FEET.
       "FAIR" INDICATES FEW OR NO CLOUDS BELOW 12,000 FEET WITH NO
       SIGNIFICANT WEATHER AND/OR OBSTRUCTIONS TO VISIBILITY.

  * THESE STATIONS DO NOT REPORT WEATHER SUCH AS RAIN...SNOW OR FOG.

NEZ001>004-019>022-054>056-202300-
NEBRASKA PANHANDLE

CITY           SKY/WX    TMP DP  RH WIND       PRES   REMARKS
SCOTTSBLUFF    MOSUNNY   57  24  28 W21G29    29.87F
ALLIANCE       PTSUNNY   54  23  30 NW16G26   29.85F
CHADRON        MOSUNNY   55  24  30 NW17G30   29.85F
KIMBALL        MOSUNNY   52  26  35 NW15      29.87F
SIDNEY         PTSUNNY   54  27  35 NW18G26   29.88F
$$

NEZ057>060-069>072-079>082-202300-
SOUTHWEST NEBRASKA

CITY           SKY/WX    TMP DP  RH WIND       PRES   REMARKS
NORTH PLATTE   PTSUNNY   56  24  29 NW18G32   29.86F
IMPERIAL       CLOUDY    51  25  36 NW15G23   29.87F
LEXINGTON      MOSUNNY   55  24  30 NW15G28   29.85F
MCCOOK         CLOUDY    60  24  25 NW16      29.87F
OGALLALA       PTSUNNY   55  25  31 W15G21    29.86F
$$

NEZ005>010-023>029-035>040-094-202300-
NORTH CENTRAL NEBRASKA

CITY           SKY/WX    TMP DP  RH WIND       PRES   REMARKS
VALENTINE      CLOUDY    51  20  29 NW21G32   29.82F
AINSWORTH      PTSUNNY   54  22  28 NW23G31   29.82F
BROKEN BOW     CLOUDY    58  22  24 NW23G31   29.83F
O`NEILL        PTSUNNY   53  19  26 NW23G35   29.79F
ORD            PTSUNNY   54  22  28 NW23G30   29.81F
THEDFORD       PTSUNNY   54  23  30 NW21G32   29.85S
$$

NEZ041-046>049-061>064-073>077-083>087-202300-
SOUTH CENTRAL NEBRASKA

CITY           SKY/WX    TMP DP  RH WIND       PRES   REMARKS
GRAND ISLAND   MOSUNNY   57  22  25 NW25G31   29.83F
AURORA         MOSUNNY   58  22  24 NW23G30   29.82S
HASTINGS       PTSUNNY   58  27  30 NW23G30   29.83F
HEBRON         CLOUDY    58  16  18 NW21G26   29.84S
HOLDREGE       MOSUNNY   56  22  26 NW23G31   29.85F
KEARNEY *      PTSUNNY   55  21  26 NW18G28   29.84F
YORK           MOSUNNY   55  23  28 NW24G30   29.81F
$$

NEZ011>018-030>034-042>045-202300-
NORTHEAST NEBRASKA

CITY           SKY/WX    TMP DP  RH WIND       PRES   REMARKS
NORFOLK        PTSUNNY   57  18  21 NW23G43   29.75S
ALBION         PTSUNNY   54  19  25 NW21G32   29.79S
BLAIR          MOSUNNY   56  11  16 NW23G33   29.74S
COLUMBUS *     PTSUNNY   55  19  24 NW25G37   29.79S
FREMONT        MOSUNNY   58  21  24 NW29G37   29.77S
TEKAMAH        SUNNY     58  18  21 NW30G44   29.73F
WAYNE          SUNNY     57   8  14 NW35G45   29.74S
$$

NEZ050>053-065>068-078-088>093-202300-
SOUTHEAST NEBRASKA

CITY           SKY/WX    TMP DP  RH WIND       PRES   REMARKS
LINCOLN        PTSUNNY   59  19  21 NW22G33   29.80F
OMAHA EPPLEY   MOSUNNY   57  14  18 NW25G43   29.74S
BEATRICE       PTSUNNY   57  25  29 NW25      29.82F
FALLS CITY     PTSUNNY   58  22  24 NW20G36   29.80F
NEBRASKA CITY  PTSUNNY   58  12  16 NW21G33   29.79S
PLATTSMOUTH    PTSUNNY   57  13  17 NW20G32   29.76F
$$

NEZ044-045-051>053-067-202300-
OMAHA AREA

CITY           SKY/WX    TMP DP  RH WIND       PRES   REMARKS
OMAHA EPPLEY   MOSUNNY   57  14  18 NW25G43   29.74S
BLAIR          MOSUNNY   56  11  16 NW23G33   29.74S
FREMONT        MOSUNNY   58  21  24 NW29G37   29.77S
MILLARD        PTSUNNY   59  20  22 NW21G30   29.76S
OFFUTT AFB     MOSUNNY   59  19  21 W25G35    29.74S
PLATTSMOUTH    PTSUNNY   57  13  17 NW20G32   29.76F
WAHOO          MOCLDY    58  14  17 NW24G38   29.77S
$$


USA.gov is the U.S. government's official web portal to all federal, state and local government web resources and services.